Wind_Speed
19 24 23 21 23 24 24 18 16 19 18 20 21 21 25 27 29 32 36 38 40 42 45 48 50 52 56 60 62 63 65 68 70 73 76 70 43 38 29 15 25 41 62 66
19 23 20 17 21 22 21 21 19 19 16 21 21 22 24 26 28 31 34 36 37 39 42 43 46 48 50 54 58 59 60 62 64 67 68 70 69 43 38 23 12 31 51 61
17 20 18 16 18 20 19 19 21 20 21 21 23 24 25 28 29 31 31 32 34 36 39 41 42 44 44 48 51 54 55 56 57 59 62 62 64 64 46 31 13 18 42 53
17 16 15 18 19 19 16 20 20 18 23 20 21 25 25 27 25 27 30 31 31 32 33 37 40 41 41 41 44 46 49 51 51 52 53 56 56 56 54 46 25 6 26 43
18 15 16 18 17 18 18 17 21 22 19 18 18 21 24 24 27 27 29 31 30 30 31 33 36 38 38 37 38 40 41 42 45 45 45 46 48 49 46 46 43 25 6 23
19 18 16 20 16 20 15 15 17 16 17 21 20 21 27 22 27 30 30 30 29 28 28 30 32 35 37 36 32 34 36 35 34 37 39 39 40 39 39 38 35 34 33 12
21 18 12 17 20 11 14 15 17 20 21 21 24 25 25 26 27 30 31 31 29 27 28 29 30 31 33 35 30 29 31 32 33 31 32 31 31 30 31 30 28 25 22 19
19 20 18 18 14 13 17 22 24 23 25 24 25 26 27 26 28 30 31 31 28 27 27 29 29 30 31 34 30 28 27 28 29 30 27 26 26 22 22 23 23 20 17 14
19 18 25 16 16 16 23 24 27 28 25 25 25 27 29 27 27 28 30 30 27 27 29 28 30 30 30 32 33 28 26 26 29 27 27 26 23 22 18 15 15 17 18 16
25 11 21 23 16 20 25 28 27 26 24 25 26 27 28 30 31 30 29 26 28 28 29 29 29 30 30 33 33 29 28 28 30 29 25 23 24 22 20 20 16 15 17 18
38 25 30 27 25 28 29 29 29 28 29 30 29 28 28 28 30 30 29 28 27 29 30 30 31 32 32 34 34 32 31 31 33 32 31 30 29 27 25 24 23 24 22 23
41 36 30 30 29 29 28 30 31 33 30 29 29 28 26 25 27 29 29 30 29 29 30 32 32 34 37 35 36 36 36 34 33 36 36 35 37 37 34 30 29 30 30 31
41 41 38 36 33 33 34 32 32 31 31 29 29 29 27 27 27 27 31 32 31 29 30 33 36 36 40 40 41 42 41 39 38 40 41 43 44 44 44 41 36 34 37 38
40 40 38 35 38 37 36 33 32 31 32 31 31 31 30 29 31 30 31 33 34 33 34 35 37 39 44 45 45 45 45 45 46 46 47 50 51 50 47 45 43 42 42 43
41 43 43 38 37 39 38 37 36 35 35 33 33 32 33 35 36 36 36 35 35 37 39 41 41 42 48 51 50 50 49 50 51 53 57 57 57 55 52 48 45 44 46 48
35 36 39 41 38 39 40 38 38 37 37 37 37 37 39 40 41 39 38 40 41 43 45 47 47 49 51 54 53 53 54 56 58 61 63 64 63 60 56 53 50 49 49 50
38 37 40 39 39 40 41 41 42 42 42 43 41 41 43 44 43 41 41 43 47 49 50 54 56 56 56 56 58 60 62 64 67 70 71 70 65 60 57 55 55 54 55 57
46 44 45 45 43 44 44 44 45 45 45 45 45 47 46 46 47 47 48 49 51 53 55 57 59 59 61 64 65 68 71 72 74 75 73 68 62 60 59 58 58 59 60 60
46 46 46 47 46 47 48 48 47 47 47 47 50 49 47 49 51 54 55 55 56 58 60 62 63 65 67 71 75 77 79 80 78 73 67 64 63 63 62 62 61 60 60 60
48 47 46 47 48 48 48 48 48 50 48 48 47 49 51 52 56 58 60 62 64 66 66 68 70 73 77 80 80 81 82 78 71 68 67 67 65 62 63 62 60 61 60 59
49 47 47 48 49 49 46 44 45 46 48 49 53 54 57 59 61 64 66 68 69 71 73 76 80 84 85 84 81 78 73 70 71 72 69 65 62 60 58 58 57 57 58 58
47 48 47 45 44 44 44 44 46 50 53 55 59 63 66 69 70 71 72 74 76 79 82 85 86 83 80 76 74 74 76 74 69 64 60 58 58 60 62 64 65 65 64 65
47 50 51 49 48 49 52 53 54 56 59 60 62 64 66 69 72 75 78 81 84 85 85 83 80 77 77 79 80 79 73 68 64 61 59 58 58 59 60 61 63 65 68 68
55 53 53 53 52 53 54 57 59 61 63 66 68 69 72 76 80 84 85 84 84 82 81 80 81 83 83 80 76 71 67 63 61 60 60 61 61 63 64 67 68 68 65 64
59 58 57 56 57 60 62 64 66 67 70 73 75 79 81 81 81 83 83 82 81 83 83 82 79 76 72 69 65 60 58 57 58 58 61 64 67 67 65 64 63 61 58 56
61 60 60 64 66 66 67 69 72 74 76 76 77 79 81 81 80 79 81 83 82 78 75 71 68 65 62 59 60 60 60 61 63 65 66 65 60 56 53 52 52 52 51 50
59 63 70 74 73 72 71 72 70 69 71 72 74 76 79 80 80 80 79 76 74 71 63 59 58 59 60 61 62 64 68 67 65 62 58 55 51 50 50 49 46 46 47 44
Wind_Direction
310 308 315 324 321 324 329 319 313 296 306 306 316 328 332 334 335 345 352 355 357 1 3 4 5 7 9 10 12 17 19 25 31 33 36 39 48 56 60 116 179 194 202 205
311 305 313 317 318 330 336 324 321 315 305 303 311 322 322 326 334 342 348 352 354 358 1 3 5 8 11 12 11 14 17 21 26 33 36 39 42 51 57 64 137 194 198 204
311 305 307 312 317 326 337 331 323 318 310 308 309 311 321 328 337 338 340 346 350 355 357 360 3 6 11 14 13 12 15 18 21 27 34 39 41 44 51 55 69 192 198 204
312 305 313 313 318 327 336 324 328 322 320 321 314 314 316 320 324 329 335 340 345 351 354 356 360 3 6 11 16 17 14 15 19 23 27 33 39 44 46 51 57 97 204 206
312 310 320 306 317 327 329 327 327 336 336 329 318 310 306 307 320 326 329 334 339 345 350 352 355 359 3 6 13 18 17 18 17 19 23 27 32 36 42 49 53 62 101 211
308 310 323 308 322 321 322 327 316 323 323 327 328 318 309 315 314 321 327 333 333 337 344 348 351 353 357 2 5 10 17 17 20 20 20 22 24 28 33 37 46 56 63 77
304 311 314 314 321 325 329 326 326 326 323 320 318 318 316 319 318 320 323 326 329 332 337 342 345 347 349 354 356 2 6 14 16 15 19 20 18 22 21 24 29 34 46 57
297 300 302 312 315 289 313 330 325 324 319 321 319 316 314 316 315 317 320 324 326 328 332 334 337 340 341 344 350 351 355 1 5 8 8 7 8 12 12 15 10 10 12 11
291 294 297 311 305 269 282 303 308 318 317 315 312 312 316 316 316 317 320 322 322 324 325 327 329 332 333 335 338 343 342 344 351 351 356 357 354 350 350 353 353 349 339 331
289 281 286 291 287 292 290 300 308 312 316 316 314 312 312 317 318 319 319 319 317 320 320 320 323 323 326 327 328 332 335 332 336 340 340 342 343 338 331 324 316 304 300 295
288 288 272 278 293 301 300 303 308 308 314 317 315 313 314 313 312 312 311 311 312 312 311 312 316 315 316 319 320 322 326 327 328 330 333 332 332 328 318 308 302 292 287 281
274 277 278 293 296 296 297 304 305 307 310 310 310 311 310 305 303 305 306 306 308 307 307 307 308 309 311 313 315 318 321 321 321 320 322 322 322 318 314 307 296 291 284 277
275 286 293 302 306 303 303 304 305 308 308 308 307 307 304 303 302 301 301 302 304 305 305 304 306 309 309 311 312 315 315 314 314 313 314 316 317 314 311 307 302 291 282 277
281 284 294 301 301 301 301 302 302 303 303 304 302 303 305 304 302 301 300 303 305 305 304 304 306 307 304 307 311 311 310 311 311 311 311 312 309 307 305 302 298 293 289 284
286 293 297 299 297 297 298 300 302 303 305 305 305 303 304 306 305 304 303 301 302 304 303 303 302 302 303 308 309 308 307 308 308 309 308 306 304 302 301 298 294 289 287 285
278 281 283 286 289 292 295 298 300 301 302 302 301 301 302 303 302 301 300 300 301 302 301 302 303 303 304 304 304 305 305 306 306 307 306 304 302 301 299 296 294 290 286 283
281 282 281 281 281 285 289 291 293 295 296 295 294 295 296 297 296 297 298 298 299 300 302 304 304 304 304 303 303 304 304 304 304 303 302 301 300 298 295 294 293 290 288 286
282 281 279 281 283 284 285 286 287 289 291 290 290 292 292 294 297 298 298 297 297 298 299 299 299 300 301 302 302 301 301 300 300 299 298 298 296 294 293 290 288 287 285 283
274 277 280 282 284 284 285 285 286 287 288 288 288 289 290 293 295 296 296 296 297 298 298 299 299 300 301 301 301 301 300 299 298 299 298 296 295 294 292 290 286 284 283 281
275 276 277 277 277 277 279 282 285 286 287 287 284 283 286 291 295 296 296 296 296 297 298 299 299 300 300 299 299 298 297 297 298 298 297 296 294 291 290 288 286 285 286 286
274 276 275 275 276 279 279 281 284 285 286 284 278 277 281 285 291 292 292 293 295 296 297 299 300 299 298 298 296 295 296 297 298 297 296 296 296 295 293 290 288 286 285 284
280 281 281 281 283 284 285 284 277 276 275 278 280 280 281 285 292 293 294 295 296 297 297 297 296 296 297 297 298 298 299 301 301 299 296 292 290 288 287 288 288 288 290 291
277 278 280 283 284 282 280 278 277 279 282 284 285 286 287 289 291 293 294 295 296 296 295 296 297 298 299 300 301 302 301 297 295 295 294 292 291 290 291 292 292 292 293 291
277 277 278 279 279 280 281 284 286 287 287 288 290 290 290 291 295 297 297 296 295 297 298 299 301 301 301 301 300 298 297 297 295 293 292 293 294 295 294 294 294 292 290 291
276 278 279 279 281 283 284 286 287 289 290 291 292 294 296 297 296 295 296 298 298 298 299 300 300 299 297 296 296 297 296 295 296 297 298 300 302 300 297 295 295 295 295 294
277 277 277 282 285 286 287 288 289 290 292 293 293 293 293 293 294 295 295 296 299 300 299 298 298 297 296 295 295 297 299 299 300 300 302 301 299 298 297 296 296 296 296 295
277 273 279 283 286 288 290 291 291 292 291 290 291 292 293 295 296 297 300 301 301 300 299 300 300 298 295 295 297 299 300 302 301 299 299 299 298 296 296 297 297 297 296 297
Height
5812 5808 5806 5804 5800 5797 5793 5792 5790 5787 5786 5783 5780 5779 5775 5771 5765 5759 5753 5745 5738 5729 5720 5711 5701 5691 5679 5666 5654 5642 5630 5618 5605 5593 5581 5570 5561 5559 5562 5566 5575 5586 5604 5617
5808 5804 5802 5801 5797 5794 5791 5787 5786 5784 5782 5779 5778 5777 5773 5769 5764 5758 5752 5745 5738 5731 5723 5716 5707 5697 5687 5676 5664 5653 5643 5632 5622 5612 5602 5592 5583 5577 5577 5581 5586 5595 5606 5620
5802 5799 5798 5798 5795 5792 5789 5786 5782 5780 5778 5777 5775 5773 5769 5765 5760 5755 5750 5745 5739 5732 5725 5718 5710 5702 5694 5684 5675 5665 5655 5646 5637 5629 5620 5612 5605 5599 5593 5595 5600 5606 5614 5625
5797 5795 5795 5792 5791 5789 5787 5783 5780 5778 5774 5773 5771 5768 5766 5762 5760 5754 5749 5744 5739 5733 5727 5720 5713 5706 5699 5692 5683 5675 5666 5658 5650 5642 5636 5629 5624 5617 5615 5612 5612 5616 5624 5632
5792 5791 5792 5787 5787 5785 5783 5781 5775 5773 5771 5770 5768 5765 5760 5757 5753 5751 5747 5740 5736 5732 5727 5721 5715 5709 5703 5697 5690 5683 5676 5669 5662 5655 5649 5642 5638 5635 5632 5628 5627 5627 5631 5638
5787 5786 5785 5782 5783 5780 5778 5776 5772 5770 5767 5763 5761 5759 5753 5754 5749 5745 5741 5738 5734 5730 5725 5721 5716 5711 5705 5701 5695 5689 5682 5676 5670 5664 5659 5654 5650 5647 5645 5644 5642 5640 5640 5642
5781 5781 5783 5779 5776 5775 5774 5775 5769 5766 5762 5760 5756 5753 5750 5748 5746 5741 5738 5735 5731 5727 5723 5719 5714 5710 5705 5700 5695 5691 5686 5682 5677 5672 5667 5663 5659 5656 5653 5652 5651 5650 5650 5650
5777 5775 5776 5776 5775 5773 5769 5766 5764 5762 5758 5755 5752 5749 5747 5744 5741 5738 5734 5731 5728 5724 5720 5716 5712 5708 5704 5699 5695 5691 5688 5683 5679 5675 5671 5668 5665 5662 5659 5657 5654 5653 5653 5652
5772 5773 5769 5769 5769 5767 5764 5763 5760 5757 5754 5751 5748 5745 5741 5739 5737 5734 5731 5726 5723 5720 5715 5712 5708 5704 5701 5697 5693 5689 5685 5681 5679 5676 5672 5669 5667 5664 5662 5660 5658 5656 5654 5651
5763 5767 5764 5761 5761 5759 5757 5756 5754 5751 5749 5747 5743 5740 5737 5733 5729 5727 5724 5721 5717 5715 5711 5707 5704 5699 5695 5691 5687 5684 5681 5678 5675 5672 5669 5667 5664 5661 5659 5657 5655 5653 5650 5648
5754 5758 5751 5753 5754 5752 5749 5747 5745 5744 5741 5738 5736 5733 5730 5727 5722 5719 5716 5714 5712 5708 5704 5701 5697 5693 5689 5686 5682 5678 5675 5672 5669 5666 5664 5661 5658 5656 5654 5651 5649 5647 5644 5642
5743 5745 5745 5751 5748 5745 5744 5741 5739 5737 5735 5731 5728 5725 5722 5719 5715 5711 5708 5705 5703 5700 5697 5693 5690 5686 5681 5678 5674 5671 5669 5665 5662 5658 5655 5651 5648 5645 5644 5642 5639 5635 5633 5631
5737 5738 5738 5741 5741 5736 5735 5734 5731 5728 5726 5723 5719 5716 5713 5711 5707 5704 5699 5695 5693 5691 5688 5684 5680 5677 5671 5669 5666 5662 5658 5655 5652 5648 5644 5641 5638 5634 5630 5627 5625 5622 5619 5618
5734 5734 5735 5733 5729 5727 5724 5723 5720 5718 5716 5714 5711 5707 5705 5702 5698 5695 5691 5687 5684 5682 5678 5675 5671 5667 5661 5658 5656 5652 5647 5643 5639 5636 5633 5628 5624 5620 5618 5615 5611 5606 5603 5600
5726 5723 5721 5723 5721 5718 5715 5713 5711 5709 5706 5704 5701 5698 5695 5692 5688 5685 5682 5679 5676 5672 5668 5665 5662 5658 5651 5647 5644 5640 5635 5631 5626 5622 5616 5612 5607 5602 5598 5595 5593 5590 5585 5581
5717 5716 5713 5710 5709 5705 5703 5703 5701 5698 5696 5693 5691 5688 5685 5681 5678 5675 5672 5668 5664 5660 5656 5652 5649 5644 5639 5633 5628 5625 5620 5615 5609 5605 5599 5592 5587 5583 5580 5576 5573 5569 5567 5564
5705 5705 5701 5699 5697 5695 5694 5692 5690 5687 5685 5681 5678 5675 5672 5669 5665 5662 5659 5656 5651 5647 5642 5638 5633 5628 5623 5618 5612 5608 5604 5599 5591 5584 5578 5572 5566 5562 5558 5554 5552 5549 5545 5541
5693 5691 5688 5687 5686 5684 5682 5680 5677 5674 5672 5669 5666 5662 5659 5656 5654 5651 5647 5643 5639 5634 5630 5626 5622 5616 5609 5603 5596 5589 5583 5577 5571 5564 5557 5550 5546 5541 5537 5533 5530 5526 5523 5518
5680 5677 5675 5672 5671 5670 5668 5666 5663 5661 5658 5656 5652 5649 5645 5642 5640 5636 5632 5627 5622 5618 5612 5606 5602 5597 5591 5584 5577 5568 5558 5551 5544 5539 5534 5530 5524 5519 5514 5509 5505 5501 5497 5494
5663 5663 5662 5660 5657 5654 5653 5651 5650 5647 5644 5642 5639 5636 5632 5628 5624 5620 5615 5611 5606 5601 5595 5588 5582 5577 5570 5561 5552 5544 5536 5529 5523 5517 5511 5506 5502 5497 5492 5486 5482 5477 5472 5468
5648 5648 5647 5645 5643 5642 5640 5639 5637 5634 5631 5629 5625 5621 5617 5612 5607 5602 5598 5592 5586 5580 5574 5568 5561 5552 5544 5537 5529 5521 5514 5507 5501 5495 5489 5482 5476 5471 5466 5462 5458 5454 5450 5446
5633 5632 5631 5629 5629 5628 5626 5624 5622 5620 5617 5614 5610 5606 5601 5596 5591 5586 5580 5575 5569 5562 5555 5546 5537 5528 5519 5512 5504 5499 5493 5486 5479 5472 5467 5462 5457 5453 5449 5443 5438 5432 5426 5422
5619 5618 5616 5616 5615 5613 5610 5608 5606 5604 5601 5597 5593 5588 5584 5578 5572 5565 5559 5552 5545 5537 5528 5520 5512 5504 5496 5489 5482 5475 5469 5462 5456 5451 5446 5441 5436 5430 5426 5421 5415 5409 5403 5397
5602 5603 5603 5602 5600 5598 5596 5593 5589 5585 5582 5578 5573 5568 5563 5557 5550 5543 5535 5526 5517 5510 5502 5496 5488 5481 5474 5466 5459 5452 5447 5441 5437 5432 5426 5421 5415 5409 5403 5396 5389 5383 5377 5371
5586 5587 5586 5585 5583 5580 5577 5574 5570 5566 5561 5556 5550 5544 5538 5531 5525 5516 5508 5501 5494 5486 5478 5471 5465 5458 5450 5443 5437 5432 5427 5422 5416 5411 5405 5400 5393 5385 5377 5370 5364 5358 5352 5347
5568 5568 5567 5566 5563 5561 5558 5555 5551 5546 5541 5535 5527 5522 5515 5508 5502 5495 5489 5481 5473 5464 5456 5449 5443 5436 5430 5425 5420 5414 5408 5402 5396 5390 5383 5376 5368 5362 5356 5351 5345 5340 5334 5329
5551 5548 5546 5543 5542 5539 5535 5531 5527 5522 5518 5512 5506 5499 5493 5485 5478 5471 5464 5457 5450 5442 5434 5428 5422 5417 5411 5406 5400 5394 5387 5381 5374 5368 5361 5355 5349 5343 5339 5334 5329 5324 5319 5314